EHI
2 2 1 0 0 0 0 0 0 0 0 0 0 0 0 0 0 0 0 0 0 0 0 0 1 3 3 3 5 7 7 6 5 5 4 2 1 0 0 1 2 3 4 4 2 1 1 0 0
1 1 0 0 0 0 0 0 0 0 0 0 0 0 0 0 0 0 0 0 0 0 0 1 2 2 3 4 6 7 7 6 5 4 3 2 2 1 1 2 3 4 4 4 4 2 1 0 0
1 0 0 0 0 0 0 0 0 0 0 0 0 0 0 0 0 0 0 0 0 0 0 1 3 3 3 5 7 7 7 6 5 5 3 2 2 2 3 4 4 5 5 5 5 3 1 0 0
1 0 0 0 0 0 0 0 0 0 0 0 0 0 0 0 0 0 0 0 0 0 0 1 4 5 5 6 6 6 6 7 7 6 4 2 1 2 4 5 6 6 6 6 6 2 0 0 0
1 0 0 0 0 0 0 0 0 0 0 0 0 0 0 0 0 0 0 0 0 0 0 1 4 6 6 6 6 7 8 9 8 7 4 3 2 3 4 5 5 5 5 5 5 2 0 0 0
1 0 0 0 0 0 0 0 0 0 0 0 0 0 0 0 0 0 0 0 0 0 0 1 3 4 5 6 7 8 9 10 9 6 4 3 2 3 3 3 2 3 3 3 4 3 1 1 1
1 0 0 0 0 0 0 0 0 0 0 0 0 0 0 0 0 0 0 0 0 0 0 0 1 2 3 5 6 6 7 7 6 4 2 1 1 1 2 1 1 1 2 2 4 5 3 2 2
0 0 0 0 0 0 0 0 0 0 0 0 0 0 0 1 1 0 0 0 0 0 0 0 0 1 2 2 3 3 3 2 2 2 1 0 0 0 1 1 1 1 1 2 3 4 3 3 3
1 1 0 0 0 0 0 0 0 0 0 0 0 0 1 2 2 1 1 1 0 0 0 0 0 0 0 0 1 1 1 0 0 1 2 1 1 0 0 1 1 1 1 1 2 2 2 2 1
0 0 0 0 0 0 0 0 0 0 0 0 0 1 3 3 3 3 2 2 1 1 1 0 0 0 0 0 0 0 0 0 1 2 3 3 2 1 1 1 1 1 0 0 1 1 1 0 0
0 0 0 0 0 0 0 0 0 0 0 0 1 2 4 4 4 3 3 3 2 2 2 1 0 0 0 0 0 0 0 0 1 2 2 2 2 2 2 2 2 1 1 1 1 1 0 0 0
0 0 0 0 0 0 0 0 0 1 1 1 1 2 3 4 5 4 3 3 3 3 3 2 1 0 0 0 0 0 0 0 1 1 1 1 1 1 2 2 2 2 2 2 2 2 1 1 1
0 0 1 0 1 1 1 1 1 2 2 1 2 3 3 4 4 3 2 2 2 3 3 4 3 1 0 0 0 0 0 0 0 0 0 0 0 0 1 1 1 2 2 2 2 2 2 2 2
0 0 0 0 1 2 2 2 3 3 3 3 3 3 2 2 3 2 1 1 1 2 4 5 4 2 1 1 0 0 0 0 0 0 0 0 0 0 0 0 0 1 1 1 1 1 2 3 3
0 0 0 0 1 2 2 3 3 3 5 5 4 2 1 1 1 1 1 0 0 1 3 5 5 3 2 1 1 1 0 0 0 0 0 0 0 0 0 0 0 0 0 0 0 0 1 1 2
0 0 0 0 1 1 1 2 2 2 5 7 5 3 1 0 0 0 0 0 0 0 1 3 4 3 3 3 2 1 0 0 0 0 0 0 0 0 0 0 0 0 0 0 0 0 0 0 1
0 0 0 0 0 0 1 1 1 1 4 5 4 3 2 1 0 0 0 0 0 0 1 2 3 3 3 3 2 1 0 0 0 0 0 0 0 0 0 0 0 0 0 0 0 0 0 0 0
0 0 0 0 0 0 1 2 1 1 2 3 3 3 2 1 0 1 1 1 1 1 1 2 3 3 3 3 1 1 0 0 0 0 0 0 0 0 0 0 0 0 0 0 0 0 0 0 0
0 0 0 0 0 1 2 3 2 2 2 2 2 2 2 2 2 2 2 3 2 2 3 3 3 3 3 3 2 1 0 0 0 0 0 0 0 0 0 0 0 0 0 0 0 0 0 0 0
0 0 0 0 0 1 2 2 3 3 3 1 1 1 2 4 4 3 3 3 3 3 3 2 3 3 3 3 2 1 0 0 0 0 0 0 0 0 0 0 0 0 0 0 0 0 0 0 0
0 0 0 0 0 0 1 1 1 2 2 1 0 0 1 3 3 4 4 4 3 3 2 2 3 3 3 3 3 2 1 0 0 0 0 0 0 0 0 0 0 0 0 0 0 0 0 0 0
0 0 0 0 0 0 0 0 0 1 1 1 0 0 1 2 3 3 3 3 2 2 2 3 3 4 4 4 4 3 1 0 0 0 0 0 0 0 0 0 0 0 0 0 0 0 0 0 0
0 0 0 0 0 0 0 0 0 0 0 0 0 0 2 3 4 4 2 1 1 1 2 4 4 5 6 6 5 3 1 0 0 0 0 0 0 0 0 0 0 0 0 0 0 0 0 0 0
0 0 0 0 0 0 0 0 0 0 0 0 0 1 3 4 5 4 2 1 0 1 3 5 6 6 6 5 4 3 1 1 0 0 0 0 0 0 0 0 0 0 0 0 0 0 0 0 0
0 0 0 0 0 0 0 0 0 0 0 0 1 3 4 4 4 4 2 2 1 2 4 6 6 5 4 3 2 2 2 1 0 0 0 0 0 0 0 0 0 0 0 0 0 0 0 0 0
0 0 0 0 0 0 0 0 0 0 0 0 2 5 6 6 5 4 2 2 3 5 7 7 6 5 3 2 1 1 1 1 0 0 0 0 0 0 0 0 1 1 1 1 0 0 0 0 0
0 0 0 0 0 0 0 0 1 1 1 0 2 6 7 6 5 3 1 1 3 6 8 9 8 6 4 3 2 2 1 1 0 0 0 0 0 0 0 0 1 2 2 1 0 0 0 0 0
0 0 0 0 0 0 0 0 1 2 1 0 1 4 6 5 3 2 0 1 3 6 9 10 9 8 5 4 4 4 3 1 0 0 0 0 0 0 0 0 1 1 2 1 0 0 0 0 0
0 0 0 0 0 0 0 0 1 2 1 0 0 2 4 4 3 1 0 1 3 6 8 10 10 9 7 5 5 4 3 1 1 1 0 0 0 0 0 0 0 0 0 0 0 0 0 0 0
0 0 0 0 0 0 0 0 0 1 1 0 0 2 4 5 3 1 1 2 4 5 8 10 10 9 8 7 5 3 2 1 2 2 1 0 0 0 0 0 0 0 0 0 0 0 0 0 0
Wind_Speed
8 6 3 1 3 4 2 3 1 1 2 2 3 4 5 3 2 1 0 4 4 4 3 5 7 7 8 9 10 10 11 11 11 11 11 10 10 10 10 9 9 9 9 9 8 8 8 8 8
5 4 1 2 4 3 3 2 2 1 3 3 4 4 5 3 3 3 2 2 4 4 3 4 8 8 8 8 9 10 9 9 9 10 10 9 9 9 9 9 9 9 8 8 8 7 7 7 7
6 3 1 3 3 2 1 1 2 3 3 2 3 4 4 2 2 2 2 5 5 4 3 4 9 8 8 8 8 9 8 8 8 8 8 8 8 8 8 8 8 8 8 7 7 7 7 6 6
3 1 2 3 2 1 2 1 2 3 3 4 4 5 4 3 2 3 5 7 6 4 3 3 8 8 8 8 8 8 8 7 7 7 7 7 7 7 7 7 7 7 6 6 6 6 6 6 6
1 2 4 3 2 1 0 1 1 2 2 3 4 5 3 4 5 7 7 6 5 3 2 2 7 7 7 7 7 7 7 6 7 7 7 7 7 6 7 6 6 6 6 6 5 5 5 5 5
2 3 4 2 2 2 1 1 2 3 3 4 4 4 2 2 5 6 6 5 5 4 2 1 5 6 6 6 7 7 6 6 6 6 6 6 6 6 6 6 6 6 6 5 5 5 5 5 5
3 3 2 0 1 1 0 1 2 3 3 3 4 4 2 2 3 6 5 5 4 3 2 1 1 3 5 5 6 5 5 5 5 5 6 6 6 5 5 5 5 5 5 5 5 5 5 5 6
2 3 2 1 0 1 0 2 2 3 3 3 4 5 3 3 5 6 6 5 4 3 2 1 1 1 1 2 4 4 4 3 3 4 5 5 5 4 4 4 4 5 5 5 5 5 5 5 6
2 4 0 2 2 2 1 2 1 3 5 3 3 3 5 9 9 7 5 4 2 2 1 1 1 1 1 1 2 2 3 2 2 2 4 2 1 1 2 3 3 4 4 4 5 5 5 5 5
2 2 4 3 3 3 2 2 3 3 3 3 4 6 9 10 9 7 5 4 3 2 1 0 0 1 1 1 1 1 0 1 1 1 1 1 1 0 0 2 4 4 3 4 4 5 4 4 2
2 3 2 1 2 4 3 2 2 5 2 4 6 9 10 10 8 7 6 4 4 2 2 1 1 1 1 0 1 1 1 1 1 1 1 1 1 1 1 1 2 2 2 1 2 2 1 0 1
1 2 2 1 2 3 4 3 3 2 2 4 8 11 11 10 8 7 6 5 3 2 2 1 1 1 1 1 1 1 0 0 0 0 1 1 0 0 1 1 1 1 1 1 1 1 1 0 1
0 1 0 2 3 4 5 4 3 2 3 6 9 10 9 9 7 5 4 4 3 2 2 1 1 1 1 1 0 1 0 0 0 0 0 1 1 1 0 1 0 1 1 1 1 1 1 1 1
1 1 2 2 3 2 5 3 3 1 4 7 8 8 8 7 7 5 4 4 4 4 3 2 2 1 1 1 1 0 0 0 0 0 0 1 1 1 0 0 0 0 1 1 1 1 1 1 1
2 3 4 1 2 2 4 3 0 3 5 7 7 7 7 5 5 5 5 5 5 4 3 3 3 2 2 2 2 1 0 1 0 0 0 0 0 1 1 1 0 1 0 0 0 0 0 1 1
3 4 2 2 1 2 4 2 2 4 7 6 6 6 6 4 4 4 4 4 4 3 3 3 3 2 2 2 1 1 1 1 0 0 0 0 0 1 1 1 1 1 0 1 1 0 0 0 1
3 1 2 2 2 2 3 3 2 3 5 5 5 5 5 4 3 3 4 4 4 4 4 3 3 3 2 2 1 1 1 1 0 0 0 1 0 1 1 1 0 0 0 0 0 0 0 1 1
3 3 2 3 3 3 2 3 2 3 4 4 4 4 4 5 5 4 4 3 3 3 3 3 3 2 2 2 1 1 1 1 1 0 0 1 1 0 1 1 0 0 1 0 0 0 0 0 0
4 3 3 3 2 3 3 3 4 4 4 4 4 4 5 5 4 4 4 3 2 2 3 3 3 2 2 2 1 1 0 0 1 1 1 1 1 1 1 0 0 0 1 1 0 0 0 0 0
3 2 2 2 1 3 1 2 2 5 5 5 6 6 6 4 3 3 3 3 3 3 3 3 3 2 3 2 2 1 1 0 0 1 1 1 1 1 1 1 0 0 0 0 0 1 1 0 1
2 5 4 2 2 3 2 3 2 2 2 3 4 4 5 6 6 4 4 4 4 4 4 4 4 3 3 2 2 2 2 2 2 2 1 2 1 1 1 1 1 0 0 0 0 1 1 1 0
3 4 5 3 3 1 1 2 5 2 2 4 4 4 5 5 5 5 4 4 5 5 3 3 3 3 3 3 3 3 2 1 1 1 1 2 2 1 1 0 1 1 0 0 1 1 1 2 1
3 3 5 4 4 2 2 1 7 0 3 6 6 7 7 7 7 6 6 5 4 4 3 3 3 2 2 3 3 3 2 1 0 0 1 1 2 1 1 0 1 0 0 0 0 0 1 1 1
5 7 7 6 5 1 2 2 6 4 6 5 6 7 7 6 6 5 4 4 3 3 3 3 3 2 2 2 3 3 3 2 1 0 1 1 1 1 2 1 0 0 0 1 1 1 1 1 1
5 6 4 4 3 5 1 2 9 6 5 6 7 7 7 7 6 6 5 5 5 4 4 4 4 2 2 3 2 2 3 3 2 2 1 1 1 1 2 1 0 0 1 1 1 1 1 1 1
4 7 8 5 5 4 1 5 7 3 2 3 4 5 5 6 6 6 7 6 5 5 4 4 4 3 2 2 2 2 2 2 2 2 1 1 1 2 2 1 1 1 1 0 1 1 1 1 1
6 3 5 7 2 0 4 6 7 0 1 2 4 5 5 6 7 7 6 5 5 5 5 5 5 4 3 3 2 2 2 2 2 1 1 1 1 1 1 1 0 0 0 0 1 0 1 0 0
5 8 5 6 5 2 4 4 5 4 3 3 4 5 5 5 5 5 5 5 5 5 4 4 4 4 3 2 2 2 2 1 1 1 1 1 1 1 0 1 0 0 1 1 1 0 0 0 0
4 4 5 5 5 6 3 7 6 7 6 6 6 6 5 5 6 6 5 5 5 4 4 4 3 3 3 2 2 1 1 1 1 1 1 1 1 0 0 0 0 0 1 1 1 0 1 1 1
4 6 8 6 4 4 4 8 4 4 5 5 5 4 4 5 5 5 5 4 4 4 4 4 4 4 3 3 2 2 1 1 1 1 1 1 1 1 1 0 0 0 1 1 1 1 1 0 0
Wind_Direction
158 147 149 132 53 43 359 329 16 45 57 43 74 88 99 96 129 153 351 123 121 127 149 161 149 141 137 134 133 132 133 134 135 137 138 139 139 140 140 139 140 141 141 139 139 137 136 135 135
149 155 164 65 71 48 334 326 41 64 136 122 75 74 74 60 59 89 95 121 120 127 134 151 144 139 137 136 135 134 133 134 136 139 140 140 142 144 146 145 145 145 145 147 147 144 142 142 140
163 183 84 66 78 149 227 316 116 103 109 86 77 61 74 76 90 121 152 132 113 116 119 151 142 139 139 139 137 135 138 138 139 141 145 146 146 150 150 151 152 151 150 152 154 153 155 154 151
156 80 52 59 37 247 195 205 138 113 71 50 84 70 62 54 116 129 122 122 116 114 117 153 142 142 143 141 140 141 143 144 145 147 148 153 156 157 156 157 158 159 160 160 160 160 163 163 163
86 75 53 31 331 323 148 187 115 97 82 57 79 86 52 18 79 105 116 121 122 114 109 143 143 145 145 142 142 142 144 148 150 154 157 157 157 160 163 166 167 170 172 171 172 170 176 179 180
59 63 63 7 336 345 3 82 98 83 92 87 84 90 54 54 92 110 115 118 120 123 120 126 146 143 146 147 149 150 151 153 154 157 162 166 167 170 174 181 183 185 186 188 187 184 189 195 198
95 79 90 306 335 336 39 72 106 119 96 91 107 97 75 78 107 117 111 106 103 103 102 81 119 144 152 151 151 152 151 157 165 167 170 174 178 182 188 193 195 196 200 203 203 202 204 208 209
126 94 54 356 155 266 81 80 92 114 100 92 102 127 164 166 124 108 94 88 88 84 84 87 81 81 98 142 156 157 157 159 168 177 182 184 188 196 205 206 207 211 213 213 217 217 219 220 221
118 73 156 216 186 218 129 103 71 70 96 79 76 122 142 130 121 109 96 82 86 94 50 53 58 67 77 123 157 161 163 151 140 156 165 161 134 215 233 225 223 225 229 233 237 238 239 234 229
103 124 224 212 187 175 154 121 122 102 97 88 81 88 115 127 132 135 138 145 159 182 204 128 120 116 116 158 119 78 108 88 77 71 84 79 72 317 260 268 250 245 243 248 251 251 248 236 219
150 198 240 257 159 141 132 111 98 128 141 168 155 142 135 138 145 154 162 170 186 193 200 198 183 164 152 141 113 81 39 44 54 63 70 79 67 347 336 332 300 290 275 289 288 279 281 234 195
166 268 241 171 101 112 133 121 86 98 176 152 147 145 145 151 163 172 174 179 177 174 206 198 181 150 168 139 105 94 58 46 56 55 85 104 91 349 329 314 314 323 315 302 301 304 315 297 220
177 289 38 110 93 99 95 89 106 97 117 118 126 136 149 161 172 177 175 172 164 181 207 204 160 155 170 135 92 91 66 65 1 354 116 152 173 241 280 312 331 307 289 254 259 280 286 270 248
234 72 76 79 82 80 94 74 85 136 128 125 134 148 162 172 176 168 166 173 181 192 201 195 168 172 151 151 159 143 142 91 35 344 279 185 184 206 188 240 291 274 264 246 211 217 220 240 242
83 59 26 16 87 119 95 40 188 173 142 140 149 158 164 177 175 180 186 188 193 195 194 189 182 165 163 173 179 169 138 105 62 346 308 211 190 190 181 179 227 260 229 153 120 124 224 243 239
47 58 17 287 122 127 116 235 219 162 148 153 160 164 170 185 189 193 190 189 189 182 182 194 188 172 181 176 168 155 122 106 59 18 339 278 237 195 166 176 235 238 149 127 126 115 335 288 266
33 96 236 272 187 145 149 220 207 152 151 157 167 173 173 183 204 205 197 190 184 183 178 177 179 172 176 169 153 138 95 92 59 35 309 289 266 205 168 180 231 174 130 135 185 63 161 247 265
215 211 227 231 216 149 169 227 193 165 169 175 177 179 184 192 209 201 191 183 178 176 167 165 171 173 151 130 100 76 55 17 11 5 310 301 303 36 149 144 173 110 103 47 30 61 38 202 261
184 187 237 256 191 147 194 222 214 184 187 193 193 195 201 206 204 184 183 177 158 160 164 174 170 164 141 127 133 137 187 297 344 322 331 331 356 55 99 74 57 93 155 191 153 121 88 25 58
179 196 251 308 83 140 187 259 219 194 201 200 199 203 205 203 192 186 185 175 173 177 183 183 181 167 168 169 158 155 146 176 215 331 357 354 7 9 67 81 70 69 151 94 114 121 128 55 91
206 188 199 191 58 58 81 324 265 222 192 199 205 202 198 199 196 192 187 185 179 188 193 191 186 177 175 157 115 91 66 35 21 5 351 340 351 1 33 76 97 74 134 185 213 166 151 151 43
243 210 165 144 105 347 98 278 281 234 231 220 216 208 205 201 191 188 188 189 193 200 187 175 173 174 173 153 146 147 148 168 245 266 319 338 358 1 13 42 91 82 85 140 237 154 165 143 168
200 111 111 104 107 62 24 168 286 258 240 237 221 212 208 198 191 193 195 196 195 186 174 167 157 165 166 162 164 158 159 184 232 323 346 340 342 346 347 0 63 66 322 252 281 98 132 157 169
125 74 60 53 65 352 247 177 277 236 221 224 214 210 204 194 188 194 192 179 181 168 161 156 154 166 154 151 155 160 164 170 160 291 317 320 331 339 342 357 39 317 249 238 207 172 172 184 162
101 94 47 8 8 257 251 206 253 250 224 208 206 205 196 187 182 187 189 183 184 176 170 164 160 169 159 151 155 168 175 182 195 214 240 271 307 311 302 315 300 271 248 235 201 176 206 200 185
169 140 155 187 217 268 295 239 256 258 240 205 193 186 178 180 184 189 197 190 186 183 176 170 171 179 169 165 179 178 181 187 204 206 208 229 248 259 277 269 283 288 286 278 179 185 233 218 218
140 158 156 127 130 282 280 282 298 224 91 149 162 165 182 184 187 190 193 185 182 183 183 177 174 176 175 178 177 171 186 194 197 194 193 220 248 272 314 301 285 300 326 1 107 104 264 37 250
132 141 105 114 142 236 289 277 254 254 219 199 187 188 192 182 181 186 185 182 182 182 174 165 169 177 174 164 170 176 178 181 180 164 200 237 265 303 10 5 338 2 12 39 78 313 300 85 9
118 103 108 113 146 155 236 269 232 217 205 195 203 199 187 189 188 181 179 175 171 159 154 159 162 157 155 161 172 158 159 169 157 167 222 235 244 251 295 263 345 12 24 49 62 12 43 67 26
156 161 149 148 192 168 175 264 280 213 201 182 192 196 184 185 176 167 164 157 155 155 157 164 163 161 169 166 161 164 159 144 149 211 247 231 232 245 242 184 60 11 32 52 65 357 57 93 25